Location: Devore Heights
(34.2372°N, 117.4156°W)
Time: 09:50:42
(UTC+00:00)

A-11 Canister half - Pass Details

Date: 17 September 2024
Orbit: 1515 x 1684 km, 47.2° (Epoch: 07 October)

Event Time Altitude Azimuth Distance (km) Brightness Sun altitude
Rises 06:03:46 0° 299° (WNW) 4,676 12.2 -46.7°
Reaches altitude 10° 06:07:05 10° 306° (NW) 3,683 11.5 -47.2°
Enters shadow 06:13:34 37° 345° (NNW) 2,181 9.9 -47.9°
Maximum altitude 06:15:45 42° 16° (NNE) 2,037 - -48.2°
Drops below altitude 10° 06:24:27 10° 85° (E) 3,696 - -49.2°
Sets 06:27:46 0° 93° (E) 4,694 - -49.5°
